Home   Weather   Sion   Past weeks

Flag for Switzerland Past Weather in Sion, Valais, Switzerland — Yesterday and Last 2 Weeks

Now
17 °F

Cold.


Feels Like: 17 °F
Forecast: 15 / 35 °F
Wind: 1 mph from Northeast

Location: Sion

Current Time: Jan 20, 2017 at 2:58:00 am

Latest Report: Jan 20, 2017 at 2:00 am


Visibility: N/A

Pressure: 30.55 "Hg (28.59 "Hg at 514m altitude)

Humidity: 89%

Dew Point: 14 °F

Location of SionLocation

Past Weather in Sion — Graph

°F

Sion Temperature Yesterday

Maximum temperature yesterday: 27 °F (at 4:00 pm)
Minimum temperature yesterday: 11 °F (at 7:00 am)
Average temperature yesterday: 19 °F

High & Low Weather Summary for the Past Weeks

 TemperatureHumidityPressure
High40 °F (Jan 13, 4:00 am)98% (Jan 13, 12:00 am)30.69 "Hg (Jan 13, 12:00 am)
Low11 °F (Jan 18, 6:00 am)45% (Jan 17, 4:00 pm)29.70 "Hg (Jan 13, 4:00 am)
Average26 °F79%30.28 "Hg
* Reported Jan 5 2:00 am — Jan 20 2:00 am, Sion, Weather by CustomWeather, © 2017

Note: Actual official high and low records may vary slightly from our data, if they occured in-between our weather recording intervals... More about our weather records

Advertising

Sion Weather History for the Previous 24 Hours

Scroll right to see more
 ConditionsComfort  
Time TempWeatherWind HumidityBarometerVisibility
2:00 am
Fri, Jan 20
17 °FCold.1 mph89%30.55 "HgN/A
1:00 am15 °FClear.1 mph90%30.56 "Hg19 mi
12:00 am16 °FCold.2 mph91%30.55 "HgN/A
11:00 pm
Thu, Jan 19
19 °FCold.2 mph85%30.54 "HgN/A
10:00 pm18 °FClear.2 mph85%30.54 "Hg19 mi
9:00 pm19 °FCold.3 mph84%30.53 "HgN/A
8:00 pm20 °FCold.1 mph83%30.52 "HgN/A
7:00 pm22 °FClear.2 mph80%30.50 "Hg19 mi
6:00 pm24 °FCold.1 mph73%30.48 "HgN/A
5:00 pm26 °FChilly.5 mph69%30.46 "HgN/A
4:00 pm27 °FSunny.2 mph65%30.45 "Hg22 mi
3:00 pm27 °FChilly.5 mph66%30.45 "HgN/A
2:00 pm26 °FChilly.7 mph66%30.47 "HgN/A
1:00 pm25 °FSunny.6 mph67%30.49 "Hg19 mi
12:00 pm23 °FCold.1 mph76%30.51 "HgN/A
11:00 am18 °FCold.1 mph86%30.54 "HgN/A
10:00 am16 °FSunny.5 mph85%30.55 "Hg19 mi
9:00 am14 °FCold.1 mph87%30.55 "HgN/A
8:00 am12 °FCold.1 mph90%30.54 "HgN/A
7:00 am11 °FClear.1 mph92%30.53 "Hg12 mi
6:00 am12 °FCold.No wind90%30.51 "HgN/A
5:00 am12 °FCold.2 mph85%30.50 "HgN/A
4:00 am17 °FClear.6 mph82%30.48 "Hg12 mi
3:00 am17 °FCold.6 mph82%30.50 "HgN/A
2:00 am16 °FCold.1 mph85%30.49 "HgN/A
Weather by CustomWeather, © 2017

See weather overviewHow to use our weather pages